If you wish to contribute or participate in the discussions about articles you are invited to join SKYbrary as a registered user

 Actions

Niigata Airport

From SKYbrary Wiki

RJSN
Airport
ICAO: RJSN – IATA: KIJ
Summary
Name Niigata Airport
Region Asia and Pacific
Territory Japan JP.gif
Location Niigata, Niigata Prefecture
Serving Niigata
Elevation 8.839 m
29 ft8.839 m
Coordinates 37° 57' 12.47" N, 139° 6' 48.75" E
Runways
Designator Length Width Surface ROPS
4/22 1311 m4,301.181 ft
46 m150.919 ft
ASP yes/yes
10/28 2499 m8,198.819 ft
46 m150.919 ft
ASP yes/yes


METAR
Observation RJSN 120700Z 32012KT 9999 FEW030 15/07 Q1018
Station Niigata Airport
Date/Time 12 November 2019 07:00:00
Wind direction 320°
Wind speed 12 kts
Lowest cloud amount few clouds
Temperature 15°C
Dew point 7°C
Humidity 58%
QNH 1018 hPa
Weather condition n/a

Airport located 6.7 km3.618 nm
6,700 m
21,981.627 ft
northeast Niigata, Japan.

Climatology

Humid Sub-tropical climate (Köppen climate classification Cfa)

Maps

Terrain

Loading map...

Airport Layout

Loading map...


Accidents & Serious Incidents at or in vicinity of RJSN

None on SKYbrary